TimeCDT,TemperatureF,Dew PointF,Humidity,Sea Level PressureIn,VisibilityMPH,Wind Direction,Wind SpeedMPH,Gust SpeedMPH,PrecipitationIn,Events,Conditions,WindDirDegrees,DateUTC
12:46 AM,57.2,26.6,31,29.86,8.0,West,13.8,-,N/A,,Overcast,260,2012-10-19 05:46:00
12:53 AM,57.0,26.1,30,29.85,8.0,West,13.8,-,N/A,,Overcast,260,2012-10-19 05:53:00
1:53 AM,57.0,24.1,28,29.85,7.0,West,12.7,-,N/A,,Overcast,270,2012-10-19 06:53:00
2:53 AM,55.9,24.1,29,29.85,7.0,West,13.8,-,N/A,,Overcast,270,2012-10-19 07:53:00
3:53 AM,54.0,25.0,33,29.85,8.0,West,10.4,-,N/A,,Overcast,270,2012-10-19 08:53:00
4:44 AM,51.8,26.6,38,29.86,9.0,West,11.5,-,N/A,,Scattered Clouds,270,2012-10-19 09:44:00
4:53 AM,51.1,26.1,38,29.85,9.0,West,11.5,-,N/A,,Partly Cloudy,260,2012-10-19 09:53:00
5:53 AM,50.0,27.0,41,29.87,10.0,West,10.4,-,N/A,,Clear,270,2012-10-19 10:53:00
6:53 AM,48.0,27.0,44,29.88,10.0,West,10.4,-,N/A,,Clear,260,2012-10-19 11:53:00
7:53 AM,48.0,26.1,42,29.89,10.0,West,11.5,-,N/A,,Clear,270,2012-10-19 12:53:00
8:53 AM,52.0,27.0,38,29.91,10.0,West,13.8,-,N/A,,Clear,270,2012-10-19 13:53:00
9:53 AM,57.0,26.1,30,29.92,10.0,WNW,18.4,25.3,N/A,,Clear,290,2012-10-19 14:53:00
10:53 AM,59.0,27.0,29,29.93,10.0,NW,19.6,31.1,N/A,,Clear,310,2012-10-19 15:53:00
11:53 AM,61.0,28.9,30,29.92,10.0,NW,11.5,23.0,N/A,,Clear,310,2012-10-19 16:53:00
12:53 PM,64.0,30.9,29,29.91,10.0,WNW,13.8,25.3,N/A,,Clear,290,2012-10-19 17:53:00
1:53 PM,66.0,30.0,26,29.89,10.0,WNW,16.1,24.2,N/A,,Clear,290,2012-10-19 18:53:00
2:53 PM,66.9,30.9,26,29.87,10.0,WNW,13.8,20.7,N/A,,Clear,300,2012-10-19 19:53:00
4:53 PM,69.1,30.9,24,29.85,10.0,WNW,12.7,18.4,N/A,,Clear,300,2012-10-19 21:53:00
5:53 PM,66.0,35.1,32,29.85,10.0,NW,5.8,-,N/A,,Clear,320,2012-10-19 22:53:00
6:53 PM,62.1,30.9,31,29.85,10.0,Calm,Calm,-,N/A,,Clear,0,2012-10-19 23:53:00
7:53 PM,59.0,30.9,35,29.86,10.0,West,3.5,-,N/A,,Clear,280,2012-10-20 00:53:00
8:53 PM,53.1,36.0,52,29.88,10.0,Calm,Calm,-,N/A,,Clear,0,2012-10-20 01:53:00
9:53 PM,50.0,37.0,61,29.88,10.0,SE,3.5,-,N/A,,Clear,130,2012-10-20 02:53:00
10:53 PM,46.0,39.0,76,29.88,10.0,SSE,4.6,-,N/A,,Clear,150,2012-10-20 03:53:00
11:53 PM,46.0,39.0,76,29.88,10.0,South,3.5,-,N/A,,Clear,170,2012-10-20 04:53:00